Location: Pedholt
(56.0260°N, 10.2097°E)
Time: 06:21:09
(UTC+00:00)

ARIANE 5 R/B - Pass Details

Date: 14 July 2020
Orbit: 749 x 794 km, 98.6° (Epoch: 14 August)

Event Time Altitude Azimuth Distance (km) Brightness Sun altitude
Rises 01:08:54 0° 23° (NNE) 3,235 8.2 -9.3°
Reaches altitude 10° 01:11:40 10° 38° (NE) 2,311 6.5 -9.1°
Maximum altitude 01:15:43 23° 90° (E) 1,582 4.5 -8.9°
Drops below altitude 10° 01:19:46 10° 143° (SE) 2,321 4.7 -8.6°
Sets 01:22:32 0° 158° (SSE) 3,251 5.4 -8.5°
